TimeEST,TemperatureF,Dew PointF,Humidity,Sea Level PressureIn,VisibilityMPH,Wind Direction,Wind SpeedMPH,Gust SpeedMPH,PrecipitationIn,Events,Conditions,WindDirDegrees,DateUTC
12:56 AM,39.0,34.0,82,29.93,9.0,West,6.9,-,N/A,,Overcast,280,2013-02-16 05:56:00
1:56 AM,39.0,28.9,67,29.92,10.0,NW,11.5,20.7,N/A,,Overcast,320,2013-02-16 06:56:00
2:56 AM,37.0,30.0,76,29.92,10.0,NNW,11.5,-,N/A,,Overcast,330,2013-02-16 07:56:00
3:56 AM,36.0,30.9,82,29.91,10.0,North,9.2,-,N/A,,Overcast,350,2013-02-16 08:56:00
4:38 AM,35.6,30.2,81,29.90,10.0,North,10.4,-,0.00,,Overcast,360,2013-02-16 09:38:00
4:56 AM,35.1,30.0,82,29.90,10.0,North,11.5,-,0.00,,Overcast,10,2013-02-16 09:56:00
6:56 AM,34.0,30.0,85,29.92,9.0,North,9.2,-,0.00,Snow,Light Snow,360,2013-02-16 11:56:00
7:23 AM,33.8,30.2,87,29.91,9.0,North,12.7,-,0.00,Snow,Light Snow,360,2013-02-16 12:23:00
7:56 AM,34.0,30.0,85,29.92,9.0,North,10.4,-,0.00,Snow,Light Snow,10,2013-02-16 12:56:00
8:56 AM,34.0,28.0,79,29.91,10.0,North,12.7,-,0.00,,Overcast,360,2013-02-16 13:56:00
9:03 AM,33.8,28.4,81,29.91,10.0,North,10.4,-,N/A,,Overcast,360,2013-02-16 14:03:00
9:56 AM,34.0,27.0,75,29.91,9.0,North,13.8,20.7,0.00,Snow,Light Snow,350,2013-02-16 14:56:00
10:56 AM,34.0,27.0,75,29.91,10.0,NNE,15.0,18.4,0.00,,Overcast,20,2013-02-16 15:56:00
11:56 AM,34.0,25.0,70,29.90,10.0,North,11.5,-,N/A,,Overcast,350,2013-02-16 16:56:00
12:56 PM,34.0,25.0,70,29.88,9.0,North,11.5,-,0.00,Snow,Light Snow,360,2013-02-16 17:56:00
1:56 PM,35.1,27.0,72,29.86,4.0,North,8.1,-,0.00,Snow,Light Snow,10,2013-02-16 18:56:00
2:56 PM,36.0,21.9,57,29.83,10.0,North,10.4,-,0.00,,Overcast,350,2013-02-16 19:56:00
3:56 PM,36.0,21.0,55,29.82,10.0,NNW,11.5,-,N/A,,Overcast,340,2013-02-16 20:56:00
4:56 PM,36.0,21.0,55,29.80,10.0,NNW,11.5,-,N/A,,Overcast,340,2013-02-16 21:56:00
5:56 PM,35.1,19.9,54,29.80,10.0,NNW,11.5,20.7,N/A,,Overcast,340,2013-02-16 22:56:00
6:56 PM,34.0,19.0,54,29.80,10.0,North,11.5,-,N/A,,Overcast,350,2013-02-16 23:56:00
7:56 PM,33.1,19.9,59,29.79,10.0,North,13.8,-,N/A,,Overcast,350,2013-02-17 00:56:00
8:56 PM,30.9,21.9,69,29.78,7.0,North,13.8,-,0.00,Snow,Light Snow,360,2013-02-17 01:56:00
9:56 PM,30.9,21.9,69,29.75,9.0,North,10.4,-,0.00,Snow,Light Snow,360,2013-02-17 02:56:00
10:38 PM,30.2,21.2,69,29.72,5.0,NNW,17.3,24.2,0.00,Snow,Light Snow,340,2013-02-17 03:38:00
10:56 PM,28.9,21.0,72,29.70,3.0,NNW,16.1,-,0.00,Snow,Light Snow,340,2013-02-17 03:56:00
11:56 PM,28.9,21.9,75,29.67,5.0,North,15.0,23.0,0.00,Snow,Light Snow,360,2013-02-17 04:56:00